Regional Weather Roundup
Issued by NWS

Home | Current Version | Previous Version | Graphics & Text | Print | Product List | Glossary On
Versions: 1 2 3 4 5 6 7 8 9 10 11 12 13 14 15 16 17 18 19 20 21 22 23 24 25 26 27 28 29 30 31 32 33 34 35 36 37 38 39 40 41 42 43 44 45 46 47 48 49 50
000
ASUS45 KBOI 280610
RWRID
WEATHER ROUNDUP FOR IDAHO
NATIONAL WEATHER SERVICE BOISE ID
1100 PM MST SAT DEC 27 2014

NOTE: "FAIR" INDICATES FEW OR NO CLOUDS BELOW 12000 FEET
WITH NO SIGNIFICANT WEATHER AND/OR OBSTRUCTIONS TO VISIBILITY

IDZ012-014-280700-
SOUTHWEST IDAHO


CITY           SKY/WX    TMP DP  RH WIND       PRES   REMARKS
BOISE          FLURRIES  30  27  88 SE12      30.13F WCI  20
CALDWELL       CLOUDY    30  23  74 E14       30.15F WCI  20
MOUNTAIN HOME  LGT SNOW  28  28 100 E14       30.15F FOG     WCI  17
$$

IDZ016-017-280700-
SOUTHCENTRAL IDAHO


CITY           SKY/WX    TMP DP  RH WIND       PRES   REMARKS
BURLEY         CLOUDY    28  18  66 SW17      30.14F WCI  16
JEROME         LGT SNOW  27  24  89 W5        30.16S FOG     WCI  22
TWIN FALLS     LGT SNOW  29  23  78 S13       30.15S WCI  19
$$

IDZ019>023-280700-
SOUTHEAST IDAHO


CITY           SKY/WX    TMP DP  RH WIND       PRES   REMARKS
IDAHO FALLS    LGT SNOW  24  20  84 S18       30.11F FOG     WCI  10
POCATELLO      CLOUDY    25  20  81 S18       30.14F WCI  11
REXBURG        LGT SNOW  20  19  96 SW9       30.10F VSB 3/4 WCI   9
$$

IDZ006-010-011-018-031-032-280700-
CENTRAL IDAHO MOUNTAINS


CITY           SKY/WX    TMP DP  RH WIND       PRES   REMARKS
MCCALL         FLURRIES  22  20  92 CALM      29.99F
HAILEY         LGT SNOW  18  14  86 NW5       30.12S WCI  11
STANLEY          N/A     17  11  77 VRB5      29.98F WCI  10
SALMON         CLOUDY    19  16  86 N3        30.01S
CHALLIS        CLOUDY    15  10  80 CALM      30.01F
$$

IDZ002-004-006-007-026-280700-
NORTHERN IDAHO


CITY           SKY/WX    TMP DP  RH WIND       PRES   REMARKS
LEWISTON       CLOUDY    38  33  82 SE12      29.96R WCI  30
LOWELL           N/A     32  31  96 CALM      30.01F
COEUR D`ALENE  CLOUDY    34  32  93 SW9       29.84F WCI  26
MULLAN PASS    SNOW      23  19  85 VRB5      29.72F VSB 1/2 WCI  17
$$


USA.gov is the U.S. government's official web portal to all federal, state and local government web resources and services.